Regional Weather Roundup
Issued by NWS State College, PA

Current Version | Previous Version | Text Only | Print | Product List | Glossary On
Versions: 1 2 3 4 5 6 7 8 9 10 11 12 13 14 15 16 17 18 19 20 21 22 23 24 25 26 27 28 29 30 31 32 33 34 35 36 37 38 39 40 41 42 43 44 45 46 47 48 49 50
000
ASUS41 KCTP 300710
RWRCTP

REGIONAL WEATHER ROUNDUP
NATIONAL WEATHER SERVICE STATE COLLEGE PA
300 AM EDT SAT JUL 30 2016

Note: "fair" indicates few or no clouds below 12,000 feet with no
significant weather and/or obstructions to visibility.

* = STATION THAT DOES NOT REPORT PRECIPITATION /E.G. RAIN...SNOW...ETC/
    THUNDER OR FOG.

PAZ002>004-007>009-013>016-020>023-029>032-300800-
WESTERN PENNSYLVANIA

CITY           SKY/WX    TMP DP  RH WIND       PRES   REMARKS
ERIE           PTCLDY    73  65  75 NE5       29.95F HAZE
MEADVILLE      PTCLDY    67  64  90 E5        29.97F
FRANKLIN*      PTCLDY    66  63  88 E5        29.99F
NEW CASTLE     FAIR      67  66  97 CALM      29.96F
BEAVER COUNTY  NOT AVBL
BUTLER*        PTCLDY    70  63  78 E5        29.99S
PITTSBURGH INT PTCLDY    70  64  81 CALM      29.96S
PITTSBURGH     MOCLDY    71  63  75 SE3       29.95F
INDIANA*       MOCLDY    68  64  88 CALM      30.01F
LATROBE        CLEAR     66  66 100 CALM      29.97F FOG
WASHINGTON CO* MOCLDY    64  63  94 CALM      29.97R
$$

PAZ004>006-010>012-017>019-024>028-033>037-041-042-045-046-049>053-300800-
CENTRAL PENNSYLVANIA

CITY           SKY/WX    TMP DP  RH WIND       PRES   REMARKS
BRADFORD       CLOUDY    65  62  90 CALM      30.03F
DUBOIS         CLOUDY    66  64  93 E6        29.99F FOG
CLEARFIELD     CLOUDY    64  61  90 N5        30.00F
JOHNSTOWN      CLEAR     68  62  81 CALM      30.01F
ALTOONA        CLEAR     65  64  97 CALM      29.99F
STATE COLLEGE  CLOUDY    65  64  97 CALM      29.99S
WILLIAMSPORT   PTCLDY    72  64  76 CALM      29.96S
SELINSGROVE    CLOUDY    71  70  96 CALM      29.96S
FT INDIANTOWN  CLOUDY    71  69  95 NW3       29.95S
CAPITAL CITY   CLOUDY    76  67  73 E6        29.95S
HARRISBURG     PTCLDY    75  69  81 CALM      29.94S
YORK           CLEAR     69  68  96 CALM      29.95S FOG
$$

PAZ038>040-043-044-047-048-054-055-060>062-067>071-300800-
EASTERN PENNSYLVANIA

CITY           SKY/WX    TMP DP  RH WIND       PRES   REMARKS
SCRANTON       MOCLDY    70  63  78 SE3       29.98S
MOUNT POCONO   CLOUDY    62  60  93 CALM      30.02F
ALLENTOWN      CLOUDY    73  69  87 CALM      29.96S
QUAKERTOWN*    PTSUNNY   72  72 100 CALM      29.97S
READING        CLOUDY    71  69  93 CALM      29.95S FOG
LANCASTER      MOCLDY    72  68  87 E3        29.95S
COATESVILLE    SUNNY     73  72  94 CALM      29.97F FOG
POTTSTOWN      CLOUDY    72  70  93 CALM      29.97S
BLUE BELL      CLOUDY    70  70 100 CALM      29.94S
DOYLESTOWN     MOCLDY    68  68 100 CALM      29.95S
WILLOW GROVE   NOT AVBL
NORTH PHILA    CLEAR     77  72  84 S3        29.96R
PHILADELPHIA   PTCLDY    76  71  85 CALM      29.95R
$$




USA.gov is the U.S. government's official web portal to all federal, state and local government web resources and services.